Weather History for Ann Arbor, MI

Change the Weather History Date:

Wednesday, January 15, 2014

  Actual Average Record
Temperature  
Mean Temperature 23 °F -  
Max Temperature 28 °F 27 °F 37 °F (2001)
Min Temperature 18 °F 12 °F -8 °F (2009)
Degree Days  
Heating Degree Days 42    
Moisture  
Dew Point 17 °F    
Average Humidity 72    
Maximum Humidity 81    
Minimum Humidity 60    
Precipitation  
Precipitation 0.00 in - - ()
Sea Level Pressure  
Sea Level Pressure 29.90 in    
Wind  
Wind Speed 15 mph (West)    
Max Wind Speed 22 mph    
Max Gust Speed 32 mph    
Visibility 8 miles    
Events Snow    
Averages and records for this station are not official NWS values.
T = Trace of Precipitation, MM = Missing Value Source: NWS Daily Summary

Daily Weather History Graph

Daily Weather History Graph

Search for Another Location

Airport:

Trip Planner

Search our weather history database for the weather conditions in past years. The results will help you decide how hot, cold, wet, or windy it might be!

Date:

Astronomy

Jan. 15, 2014 Rise Set
Actual Time 8:01 AM EST 5:28 PM EST
Civil Twilight 7:30 AM EST 5:59 PM EST
Nautical Twilight 6:55 AM EST 6:33 PM EST
Astronomical Twilight 6:22 AM EST 7:07 PM EST
Moon 5:26 PM EST (1/15) 7:15 AM EST (1/15)
Length of Visible Light 10h 28m
Length of Day
9h 26m
Full, 100% of the Moon is Illuminated
Jan 15
Full
Jan 15
Full
Jan 24
Last Quarter
Jan 30
New
Feb 6
First Quarter

Hourly Weather History & Observations

Time (EST) Temp. Windchill Dew Point Humidity Pressure Visibility Wind Dir Wind Speed Gust Speed Precip Events Conditions
12:53 AM 28.0 °F 14.3 °F 17.1 °F 63% 29.75 in 10.0 mi WSW 21.9 mph 32.2 mph N/A   Overcast
1:53 AM 26.1 °F 12.0 °F 14.0 °F 60% 29.75 in 10.0 mi WSW 20.7 mph 26.5 mph N/A   Mostly Cloudy
2:53 AM 25.0 °F 11.7 °F 16.0 °F 69% 29.76 in 10.0 mi WSW 17.3 mph 24.2 mph N/A   Mostly Cloudy
3:53 AM 26.1 °F 12.7 °F 16.0 °F 66% 29.77 in 10.0 mi WSW 18.4 mph 27.6 mph N/A   Overcast
4:11 AM 24.8 °F 11.5 °F 15.8 °F 69% 29.74 in 10.0 mi WSW 17.3 mph 25.3 mph N/A   Overcast
4:53 AM 25.0 °F 11.3 °F 17.1 °F 72% 29.77 in 9.0 mi SW 18.4 mph 28.8 mph 0.00 in Snow Light Snow
5:08 AM 24.8 °F 11.5 °F 17.6 °F 74% 29.75 in 9.0 mi SW 17.3 mph 26.5 mph 0.00 in   Overcast
5:20 AM 24.8 °F 11.5 °F 17.6 °F 74% 29.76 in 10.0 mi WSW 17.3 mph 25.3 mph 0.00 in   Overcast
5:53 AM 25.0 °F 10.9 °F 17.1 °F 72% 29.79 in 10.0 mi SW 19.6 mph 29.9 mph 0.00 in   Overcast
6:53 AM 25.0 °F 11.3 °F 17.1 °F 72% 29.82 in 10.0 mi WSW 18.4 mph 25.3 mph N/A   Overcast
7:53 AM 25.0 °F 11.7 °F 18.0 °F 75% 29.85 in 10.0 mi WSW 17.3 mph - N/A   Overcast
8:53 AM 25.0 °F 12.6 °F 19.0 °F 78% 29.90 in 7.0 mi West 15.0 mph - 0.00 in Snow Light Snow
9:04 AM 24.8 °F 13.4 °F 19.4 °F 80% 29.87 in 3.0 mi West 12.7 mph - 0.00 in Snow Light Snow
9:15 AM 24.8 °F 12.9 °F 19.4 °F 80% 29.88 in 2.5 mi West 13.8 mph - 0.00 in Snow Light Snow
9:24 AM 24.8 °F 13.4 °F 19.4 °F 80% 29.88 in 4.0 mi West 12.7 mph - 0.00 in Snow Light Snow
9:51 AM 26.6 °F 16.2 °F 19.4 °F 74% 29.89 in 7.0 mi West 11.5 mph - 0.00 in Snow Light Snow
9:53 AM 26.1 °F 14.5 °F 19.9 °F 78% 29.93 in 7.0 mi West 13.8 mph - 0.00 in Snow Light Snow
10:51 AM 24.8 °F 15.3 °F 17.6 °F 74% 29.92 in 6.0 mi WNW 9.2 mph - 0.00 in Snow Light Snow
10:53 AM 25.0 °F 14.8 °F 17.1 °F 72% 29.96 in 6.0 mi NW 10.4 mph - 0.00 in Snow Light Snow
11:40 AM 26.6 °F 18.2 °F 19.4 °F 74% 29.93 in 5.0 mi WNW 8.1 mph - 0.00 in Snow Light Snow
11:53 AM 26.1 °F 17.6 °F 19.0 °F 75% 29.96 in 6.0 mi West 8.1 mph - 0.00 in Snow Light Snow
12:53 PM 26.1 °F 16.8 °F 18.0 °F 71% 29.95 in 6.0 mi West 9.2 mph - 0.00 in Snow Light Snow
1:11 PM 26.6 °F 17.5 °F 19.4 °F 74% 29.92 in 6.0 mi West 9.2 mph - 0.00 in Snow Light Snow
1:53 PM 27.0 °F 17.3 °F 18.0 °F 69% 29.95 in 9.0 mi West 10.4 mph - 0.00 in   Overcast
2:21 PM 26.6 °F 16.2 °F 17.6 °F 69% 29.92 in 8.0 mi West 11.5 mph - 0.00 in Snow Light Snow
2:53 PM 26.1 °F 16.8 °F 18.0 °F 71% 29.96 in 8.0 mi WNW 9.2 mph - 0.00 in Snow Light Snow
3:24 PM 26.6 °F 16.8 °F 17.6 °F 69% 29.93 in 10.0 mi West 10.4 mph - 0.00 in   Overcast
3:53 PM 27.0 °F 18.0 °F 16.0 °F 63% 29.97 in 10.0 mi West 9.2 mph - 0.00 in   Overcast
4:53 PM 26.1 °F 16.2 °F 16.0 °F 66% 29.99 in 10.0 mi West 10.4 mph - 0.00 in   Overcast
5:43 PM 24.8 °F 13.4 °F 17.6 °F 74% 29.98 in 5.0 mi WNW 12.7 mph - 0.00 in Snow Light Snow
5:53 PM 24.1 °F 14.4 °F 16.0 °F 71% 30.02 in 9.0 mi West 9.2 mph - 0.00 in   Overcast
6:53 PM 24.1 °F 16.0 °F 14.0 °F 65% 30.01 in 10.0 mi WNW 6.9 mph - N/A   Overcast
7:53 PM 21.0 °F 14.6 °F 14.0 °F 74% 30.02 in 10.0 mi West 4.6 mph - N/A   Scattered Clouds
8:53 PM 18.0 °F 9.8 °F 12.9 °F 81% 30.02 in 10.0 mi WSW 5.8 mph - N/A   Partly Cloudy
9:53 PM 19.9 °F 12.1 °F 15.1 °F 81% 30.01 in 10.0 mi WSW 5.8 mph - 0.00 in   Mostly Cloudy
10:29 PM 19.4 °F 9.5 °F 14.0 °F 80% 29.97 in 10.0 mi WSW 8.1 mph - N/A   Overcast
10:53 PM 19.9 °F 10.1 °F 14.0 °F 78% 30.01 in 10.0 mi WSW 8.1 mph - N/A   Overcast
11:53 PM 19.9 °F 9.3 °F 10.9 °F 68% 29.98 in 10.0 mi SW 9.2 mph - N/A   Overcast